CW7313 Drosia of Attica GR current weather conditions

sailwx.info

Wind from 021 at 1 knots gusting 18

Air temperature 6.1° C
Dewpoint 0.9° C

Last reported at 2018-Jan-22 15:35 UTC.
Time now 2018-Jan-22 16:27 UTC

Location: N 38°07' E 023°52'.
View on Google Maps.

See reports from other nearby stations

  
Tides and Currents Weather Stations Pressure Air Temp Water Temp Dewpoint Dewpoint Depression Visibility Wind Speed Wind Dir Waves Ship Positions
date/time (UTC)wind fromknots sea level pressurealtimeterstation pressurevisibilityair tempwater tempwave heightnotes
2018-Jan-22 16:05 051 1 gusting 6 6.1
2018-Jan-22 15:35 021 1 gusting 18 6.1
2018-Jan-22 15:05 347 6 gusting 16 6.1
2018-Jan-22 14:35 013 4 gusting 13 6.7
2018-Jan-22 14:05 360 6 gusting 13 6.7
2018-Jan-22 13:35 332 3 gusting 10 7.2
2018-Jan-22 13:05 355 6 gusting 17 7.2
2018-Jan-22 12:35 317 7.2
2018-Jan-22 12:05 021 0 gusting 6 7.8
2018-Jan-22 11:35 345 10 gusting 23 6.7
2018-Jan-22 11:05 329 9 gusting 19 6.7
2018-Jan-22 10:35 360 4 gusting 16 6.1
2018-Jan-22 10:05 325 5 gusting 16 6.1
2018-Jan-22 09:35 329 3 gusting 28 6.1
2018-Jan-22 09:05 031 6.1
2018-Jan-22 08:35 157 0 gusting 16 6.1
2018-Jan-22 08:05 017 1 gusting 19 5.6
2018-Jan-22 07:35 241 3 gusting 9 5.6
2018-Jan-22 07:05 019 1 gusting 5 5.6
2018-Jan-22 06:35 213 6 gusting 13 5.6
2018-Jan-22 06:05 005 6.1
2018-Jan-22 05:35 315 2 gusting 10 6.7
2018-Jan-22 05:05 355 0 gusting 3 7.8
2018-Jan-22 04:35 203 8.3
2018-Jan-22 04:05 203 8.3
2018-Jan-22 03:35 197 1 gusting 5 8.9
2018-Jan-22 03:05 211 1 gusting 8 8.9
2018-Jan-22 02:35 351 8.9
2018-Jan-22 02:05 234 8.9
2018-Jan-22 01:35 236 0 gusting 6 8.9
2018-Jan-22 01:06 207 1 gusting 4 8.3
2018-Jan-22 00:35 205 2 gusting 6 8.3
2018-Jan-22 00:05 259 8.9
2018-Jan-21 14:36 209 2 gusting 12 12.8
2018-Jan-21 14:05 201 0 gusting 13 12.8
2018-Jan-21 13:35 182 1 gusting 11 12.8
2018-Jan-21 13:05 203 4 gusting 9 13.3
2018-Jan-21 12:35 200 4 gusting 11 13.3
2018-Jan-21 12:05 236 5 gusting 10 13.3
2018-Jan-21 11:35 215 3 gusting 19 13.3
2018-Jan-21 11:05 176 5 gusting 11 13.3
2018-Jan-21 10:35 229 1 gusting 19 12.8
2018-Jan-21 10:06 161 4 gusting 14 12.8
2018-Jan-21 09:36 215 4 gusting 9 12.2
2018-Jan-21 09:05 159 3 gusting 13 11.7
2018-Jan-21 08:35 201 4 gusting 13 11.7
2018-Jan-21 08:05 213 2 gusting 7 12.2
2018-Jan-21 07:35 192 2 gusting 6 11.7
2018-Jan-21 07:06 198 4 gusting 10 11.1
2018-Jan-21 06:36 217 0 gusting 4 11.1
2018-Jan-21 06:06 211 11.1
2018-Jan-21 05:35 236 11.1
2018-Jan-21 05:06 215 2 gusting 6 11.1
2018-Jan-21 04:35 205 2 gusting 5 10.6
2018-Jan-21 04:06 226 10.6
2018-Jan-21 03:35 226 11.1
2018-Jan-21 03:06 213 1 gusting 6 11.1
2018-Jan-21 02:36 195 11.1
2018-Jan-21 02:05 221 2 gusting 7 10.6
2018-Jan-21 01:35 233 11.1
2018-Jan-21 01:05 202 2 gusting 8 11.1
2018-Jan-21 00:35 192 2 gusting 6 11.7
2018-Jan-21 00:05 215 3 gusting 8 11.7
2018-Jan-20 23:35 203 0 gusting 8 11.7
2018-Jan-20 23:05 186 4 gusting 10 11.7
2018-Jan-20 22:35 223 3 gusting 14 11.7
2018-Jan-20 22:06 217 4 gusting 11 11.7
2018-Jan-20 21:36 238 0 gusting 6 11.7
2018-Jan-20 21:05 238 0 gusting 13 11.7
2018-Jan-20 20:35 236 3 gusting 8 11.7
2018-Jan-20 20:05 161 4 gusting 10 11.7
2018-Jan-20 19:36 181 11.7
2018-Jan-20 19:05 180 3 gusting 12 12.2
2018-Jan-20 18:35 230 4 gusting 10 12.2
2018-Jan-20 18:05 210 6 gusting 14 12.2
2018-Jan-20 17:36 167 6 gusting 17 12.2
2018-Jan-20 17:05 182 6 gusting 12 12.2
2018-Jan-20 16:35 198 6 gusting 13 12.2
2018-Jan-20 16:05 199 4 gusting 10 12.2